TimeCDT,TemperatureF,Dew PointF,Humidity,Sea Level PressureIn,VisibilityMPH,Wind Direction,Wind SpeedMPH,Gust SpeedMPH,PrecipitationIn,Events,Conditions,WindDirDegrees,DateUTC
12:58 AM,69.6,59.5,70,30.03,10.0,SE,5.8,-,N/A,,Clear,130,2013-07-13 05:58:00
1:58 AM,67.5,59.5,76,30.03,10.0,SE,6.9,-,N/A,,Clear,140,2013-07-13 06:58:00
2:58 AM,67.6,59.5,75,30.05,10.0,SE,5.8,-,N/A,,Clear,140,2013-07-13 07:58:00
3:58 AM,66.2,59.5,79,30.04,10.0,SSE,5.8,-,N/A,,Clear,150,2013-07-13 08:58:00
4:58 AM,65.7,59.7,81,30.03,10.0,SSE,6.9,-,N/A,,Clear,160,2013-07-13 09:58:00
5:58 AM,66.9,58.8,75,30.04,10.0,SSE,9.2,-,N/A,,Clear,160,2013-07-13 10:58:00
6:58 AM,67.1,59.4,76,30.05,10.0,SSE,6.9,-,N/A,,Clear,160,2013-07-13 11:58:00
7:58 AM,69.8,60.1,71,30.06,10.0,SSE,8.1,-,N/A,,Clear,160,2013-07-13 12:58:00
8:58 AM,72.9,61.2,67,30.07,10.0,South,8.1,-,N/A,,Scattered Clouds,170,2013-07-13 13:58:00
9:58 AM,76.5,61.7,60,30.08,10.0,SSE,6.9,-,N/A,,Partly Cloudy,160,2013-07-13 14:58:00
10:58 AM,80.4,61.5,52,30.07,10.0,South,11.5,-,N/A,,Clear,180,2013-07-13 15:58:00
11:58 AM,81.7,62.2,52,30.06,10.0,South,9.2,-,N/A,,Partly Cloudy,170,2013-07-13 16:58:00
12:58 PM,82.2,63.7,53,30.05,10.0,SSE,8.1,-,N/A,,Partly Cloudy,150,2013-07-13 17:58:00
1:58 PM,84.7,62.2,47,30.04,10.0,SE,8.1,-,N/A,,Scattered Clouds,140,2013-07-13 18:58:00
2:58 PM,86.2,63.1,46,30.02,10.0,South,6.9,-,N/A,,Partly Cloudy,170,2013-07-13 19:58:00
3:58 PM,87.3,62.8,44,30.01,10.0,ESE,8.1,-,N/A,,Clear,110,2013-07-13 20:58:00
4:58 PM,83.8,63.5,50,30.01,10.0,East,9.2,-,N/A,,Clear,100,2013-07-13 21:58:00
5:58 PM,82.0,63.1,53,30.01,10.0,ESE,6.9,-,N/A,,Clear,110,2013-07-13 22:58:00
6:58 PM,79.5,62.2,55,30.00,10.0,ESE,9.2,-,N/A,,Clear,120,2013-07-13 23:58:00
7:58 PM,76.6,63.3,63,29.99,10.0,SE,8.1,-,N/A,,Partly Cloudy,130,2013-07-14 00:58:00
9:58 PM,73.6,63.3,70,30.02,10.0,ESE,5.8,-,N/A,,Mostly Cloudy,120,2013-07-14 02:58:00
10:58 PM,73.0,63.0,71,30.03,10.0,ESE,4.6,-,N/A,,Mostly Cloudy,120,2013-07-14 03:58:00